This is the latest recevied weather packets stored in our database for station/object K2ATL. If no packets are shown the sender has not sent any weather packets the latest 10 day(s).
| Time | Temp. | Humidity | Pressure | Rain* | Wind** | Luminosity | Snow |
|---|---|---|---|---|---|---|---|
| 1787623456 | 22.78° C | 66% | 1103.8 hPa | 0 mm | - | 0 W/m² | - |
| 1787623154 | 22.78° C | 64% | 1104 hPa | 0 mm | - | 0 W/m² | - |
| 1787622850 | 22.78° C | 64% | 1103.7 hPa | 0 mm | - | 0 W/m² | - |
| 1787622547 | 23.33° C | 64% | 1103.6 hPa | 0 mm | - | 0 W/m² | - |
| 1787622243 | 23.33° C | 65% | 1103.6 hPa | 0 mm | - | 0 W/m² | - |
| 1787621943 | 23.33° C | 64% | 1103.6 hPa | 0 mm | - | 0 W/m² | - |
| 1787621637 | 23.33° C | 63% | 1103.4 hPa | 0 mm | - | 0 W/m² | - |
| 1787621333 | 23.33° C | 64% | 1103.2 hPa | 0 mm | - | 0 W/m² | - |
| 1787621028 | 23.33° C | 64% | 1103.2 hPa | 0 mm | - | 0 W/m² | - |
| 1787620724 | 23.33° C | 63% | 1103.1 hPa | 0 mm | - | 0 W/m² | - |
| 1787620419 | 23.33° C | 62% | 1103.1 hPa | 0 mm | - | 0 W/m² | - |
| 1787620115 | 23.33° C | 63% | 1103 hPa | 0 mm | - | 0 W/m² | - |
| 1787619810 | 23.89° C | 62% | 1103 hPa | 0 mm | - | 0 W/m² | - |
| 1787619505 | 23.89° C | 62% | 1102.8 hPa | 0 mm | - | 0 W/m² | - |
| 1787619200 | 23.89° C | 62% | 1102.6 hPa | 0 mm | - | 0 W/m² | - |
| 1787618899 | 23.89° C | 61% | 1102.8 hPa | 0 mm | - | 0 W/m² | - |
| 1787618596 | 23.89° C | 61% | 1102.8 hPa | 0 mm | - | 0 W/m² | - |
| 1787618293 | 23.89° C | 61% | 1102.7 hPa | 0 mm | - | 0 W/m² | - |
| 1787617989 | 23.89° C | 61% | 1102.5 hPa | 0 mm | - | 0 W/m² | - |
| 1787617689 | 24.44° C | 60% | 1102.5 hPa | 0 mm | - | 0 W/m² | - |
| 1787617383 | 24.44° C | 59% | 1102.4 hPa | 0 mm | - | 1 W/m² | - |
| 1787617082 | 25° C | 59% | 1102.6 hPa | 0 mm | - | 2 W/m² | - |
| 1787616778 | 25.56° C | 58% | 1102.5 hPa | 0 mm | - | 3 W/m² | - |
| 1787616478 | 26.11° C | 57% | 1102.6 hPa | 0 mm | - | 5 W/m² | - |
| 1787616176 | 27.78° C | 54% | 1102.5 hPa | 0 mm | - | 8 W/m² | - |
* Rain latest hour (hover to see other rain measurements)
** Current wind speed in m/s (hover to see current wind gust speed)